Location: Dvur Kralove nad Labem
(50.4330°N, 15.8170°E)
Time: 20:53:22
(UTC+02:00)

ISS - Pass Details

Date: 22 May 2022
Orbit: 414 x 420 km, 51.6° (Epoch: 30 June)

Event Time Altitude Azimuth Distance (km) Brightness Sun altitude
Rises 22:19:11 0° 280° (W) 2,370 0.8 -11.3°
Reaches altitude 10° 22:21:17 10° 282° (WNW) 1,503 -0.2 -11.5°
Maximum altitude 22:24:40 76° 8° (N) 436 -3.6 -11.8°
Enters shadow 22:28:00 10° 95° (E) 1,488 -1.3 -12.1°
